[[{"header":{"parameterUnit":"m.s-1","parameterCategory":1,"la1":30.2991,"la2":30.254,"lo1":-89.0895,"lo2":-89.0444,"dy":0.0017,"dx":0.0017,"nx":28,"ny":28,"refTime":"2023-08-07T03:00:00:Z","depth":0,"parameterNumber":2,"parameterNumberName":"U-component_of_WINDS"},"data":[0,0,0,0,0,0,0,0,0,0,0,0,0,0,0,0,0,0,0,0,0,0,0,0,0,0,0,0,0,0,0,0,0,0,0,0,0,0,0,0,0,0,0,0,0,0,0,0,0,0,0,0,0,0,0,0,0,0,1.3951,1.3953,0,1.4174,1.4177,1.418,1.4237,1.4235,1.4234,1.4233,1.4464,1.4472,1.4479,0,0,0,0,0,0,0,0,0,0,0,0,0,1.3577,1.3584,1.3951,1.3954,1.3956,1.4174,1.4177,1.418,1.4237,1.4235,1.4234,1.4232,1.4462,1.4471,1.448,0,0,0,0,0,0,0,0,0,0,0,0,0,1.3764,1.3586,1.395,1.4011,1.4019,1.4173,1.4177,1.4181,1.4237,1.4235,1.4233,1.4231,1.4459,1.447,1.4481,1.4592,0,0,1.4515,1.452,0,0,0,0,0,0,0,0,1.3753,1.3778,1.3999,1.4007,1.4016,1.4176,1.4131,1.4319,1.4238,1.4154,1.4233,1.423,1.437,1.4389,1.4435,1.4603,1.4613,1.4516,1.4523,1.4528,1.4531,0,0,0,0,0,0,0,1.374,1.3768,1.4039,1.4002,1.4013,1.4028,1.4053,1.4167,1.4271,1.4161,1.4166,1.4192,1.4374,1.4424,1.4441,1.4617,1.4516,1.4526,1.4533,1.4537,1.4891,1.4893,0,0,0,0,0,0,1.3717,1.3757,1.4032,1.4046,1.3877,1.4037,1.4064,1.4126,1.427,1.429,1.4193,1.4194,1.4406,1.4428,1.4449,1.4592,1.4528,1.4538,1.4545,1.4888,1.4891,1.4894,0,0,0,0,0,0,1.3708,1.374,1.4023,1.3903,1.394,1.4045,1.4115,1.4132,1.4182,1.4294,1.4314,1.4225,1.4405,1.4434,1.4557,1.46,1.4543,1.4554,1.4885,1.4889,1.4893,1.4875,0,0,0,0,0,0,1.3697,1.3737,1.3779,1.3904,1.3946,1.4126,1.4118,1.4138,1.4201,1.4203,1.4329,1.4348,1.4406,1.454,1.4568,1.4615,1.4562,1.4882,1.4887,1.4891,1.4872,1.4878,1.4883,0,0,0,0,0,1.3684,1.3766,1.3781,1.3814,1.4001,1.4128,1.4153,1.4217,1.4204,1.4248,1.4321,1.4344,1.4591,1.4552,1.4584,1.4635,1.4879,1.4885,1.4891,1.487,1.4877,1.4883,0,0,0,0,0,0,1.3644,1.3783,1.3802,1.3926,1.4015,1.4137,1.4195,1.4222,1.4317,1.4315,1.4392,1.442,1.4539,1.4599,1.4553,1.4752,1.4735,1.4748,1.4708,1.4716,1.4721,1.4705,1.4572,0,0,0,0,0,1.365,1.374,1.3857,1.3955,1.3999,1.4089,1.4147,1.4188,1.4284,1.4322,1.4404,1.4496,1.4595,1.4659,1.4755,1.4881,1.4911,1.4932,1.4937,1.4941,1.4952,1.5026,1.5037,1.4914,1.4914,1.4914,0,0,1.3662,1.3749,1.3802,1.3949,1.4023,1.4117,1.412,1.4218,1.4289,1.4337,1.4459,1.4522,1.4631,1.4756,1.4816,1.481,1.4992,1.4949,1.4951,1.496,1.5033,1.5045,1.5055,1.4918,1.4917,1.4916,0,0,1.3734,1.3808,1.3899,1.3973,1.4085,1.4145,1.4166,1.4286,1.4329,1.4453,1.4492,1.4577,1.4745,1.4822,1.4882,1.4985,1.5011,1.5014,1.5042,1.5113,1.5123,1.5132,1.5171,1.5184,1.5024,1.5024,1.5024,0,1.3736,1.3877,1.3943,1.404,1.4105,1.4152,1.4247,1.4315,1.4453,1.4498,1.4489,1.4703,1.4779,1.4924,1.4949,1.4996,1.5026,1.5001,1.5116,1.5126,1.5136,1.5174,1.5188,1.5024,1.5024,1.5024,1.5024,0,1.3875,1.3973,1.4033,1.4165,1.4237,1.4332,1.4414,1.4478,1.4514,1.4576,1.4702,1.4795,1.4913,1.495,1.4986,1.5102,1.5096,1.5101,1.5086,1.5146,1.5183,1.5198,1.5024,1.5024,1.5024,1.5024,0,0,1.3928,1.4096,1.4117,1.4179,1.4306,1.4384,1.4482,1.4596,1.4652,1.4745,1.4831,1.4973,1.4979,1.5048,1.5093,1.5155,1.5233,1.5154,1.5157,1.5167,1.537,1.5366,1.5382,1.525,1.5253,1.5256,1.5361,0,1.4017,1.4193,1.4256,1.4402,1.4494,1.4542,1.4628,1.4716,1.4776,1.4864,1.4931,1.5031,1.5031,1.5073,1.5136,1.521,1.5276,1.5203,1.5333,1.5337,1.5306,1.5401,1.5398,1.5493,1.5376,1.5378,1.538,0,1.4144,1.424,1.4395,1.4513,1.4554,1.463,1.4741,1.4824,1.4926,1.4966,1.5044,1.5085,1.5192,1.5169,1.5318,1.5268,1.5325,1.5369,1.5375,1.5391,1.5364,1.5422,1.5524,1.5539,1.5403,1.5402,1.54,0,1.417,1.4337,1.4452,1.4503,1.4643,1.4696,1.4757,1.4857,1.4922,1.502,1.5064,1.5173,1.5233,1.5317,1.5387,1.5364,1.5531,1.5514,1.5569,1.5568,1.5604,1.5601,1.5719,1.5637,1.5636,1.5636,1.5636,0,1.4264,1.4357,1.4466,1.4537,1.4644,1.4716,1.4821,1.4885,1.4973,1.5059,1.5106,1.5186,1.5273,1.5365,1.542,1.5537,1.5563,1.56,1.5614,1.5597,1.5593,1.5637,1.5633,1.564,1.5639,1.5638,1.5638,0,1.4311,1.4387,1.4517,1.4639,1.4672,1.4745,1.4851,1.4923,1.4985,1.5093,1.5123,1.5221,1.5331,1.541,1.5551,1.5589,1.5716,1.5728,1.5681,1.5688,1.574,1.5735,1.5893,1.5918,1.5816,1.5817,1.5818,0,1.4367,1.444,1.457,1.4631,1.4692,1.4789,1.4856,1.493,1.4999,1.5122,1.5179,1.5293,1.5388,1.5562,1.5647,1.5757,1.5774,1.5821,1.5791,1.5772,1.5778,1.5773,1.5782,1.5826,1.5827,1.5828,1.5828,0,1.4458,1.4493,1.4588,1.4698,1.4777,1.4867,1.4957,1.5004,1.5094,1.517,1.5283,1.5356,1.5502,1.5615,1.5733,1.5797,1.5829,1.5837,1.5856,1.5841,1.5811,1.5831,1.5696,1.5833,1.5833,1.5833,1.5832,1.5832,1.4514,1.4582,1.4685,1.479,1.4866,1.495,1.5024,1.5096,1.5192,1.5316,1.5354,1.5472,1.5574,1.5736,1.5802,1.5897,1.5895,1.5921,1.5929,1.5935,1.5936,1.5794,1.5918,1.5918,1.5918,1.5918,1.5918,0,1.461,1.4679,1.4775,1.49,1.4984,1.5005,1.5106,1.5175,1.5278,1.5371,1.5464,1.5595,1.5705,1.5799,1.5914,1.5972,1.599,1.6,1.5997,1.6012,1.593,1.5903,1.5984,1.5984,1.5984,1.5984,1.5984,1.5984,1.467,1.4788,1.4835,1.4992,1.506,1.5176,1.5233,1.5311,1.5386,1.553,1.5622,1.5682,1.5777,1.5899,1.6001,1.6026,1.6068,1.6075,1.6103,1.6025,1.6018,1.6011,1.5986,1.6083,1.6083,1.6178,1.6179,1.618]},{"header":{"parameterUnit":"m.s-1","parameterCategory":1,"la1":30.2991,"la2":30.254,"lo1":-89.0895,"lo2":-89.0444,"dy":0.0017,"dx":0.0017,"nx":28,"ny":28,"refTime":"2023-08-07T03:00:00:Z","depth":0,"parameterNumber":3,"parameterNumberName":"V-component_of_WINDS"},"data":[0,0,0,0,0,0,0,0,0,0,0,0,0,0,0,0,0,0,0,0,0,0,0,0,0,0,0,0,0,0,0,0,0,0,0,0,0,0,0,0,0,0,0,0,0,0,0,0,0,0,0,0,0,0,0,0,0,0,5.8164,5.8166,0,5.8324,5.8326,5.8328,5.8309,5.8306,5.8304,5.8301,5.8455,5.8461,5.8467,0,0,0,0,0,0,0,0,0,0,0,0,0,5.7831,5.7837,5.8164,5.8166,5.8168,5.8324,5.8326,5.8328,5.8309,5.8306,5.8303,5.83,5.8452,5.846,5.8468,0,0,0,0,0,0,0,0,0,0,0,0,0,5.7981,5.7839,5.8163,5.8177,5.818,5.8323,5.8326,5.8329,5.831,5.8306,5.8302,5.8298,5.845,5.8459,5.8469,5.8605,0,0,5.8499,5.8503,0,0,0,0,0,0,0,0,5.7973,5.7994,5.8173,5.8177,5.818,5.8293,5.8265,5.8421,5.8311,5.826,5.8301,5.8297,5.8403,5.8416,5.8455,5.8612,5.8619,5.8499,5.8505,5.8509,5.8512,0,0,0,0,0,0,0,5.7962,5.7986,5.8227,5.8176,5.818,5.8172,5.8189,5.8294,5.8351,5.8264,5.8263,5.8283,5.8404,5.8445,5.8458,5.8621,5.8499,5.8508,5.8514,5.8517,5.8899,5.8903,0,0,0,0,0,0,5.795,5.7978,5.8222,5.8232,5.8065,5.8181,5.8201,5.826,5.835,5.836,5.8286,5.8282,5.8431,5.8447,5.8463,5.863,5.8509,5.8518,5.8524,5.8895,5.89,5.8905,0,0,0,0,0,0,5.7943,5.7972,5.8215,5.8105,5.8135,5.8191,5.8258,5.8265,5.8307,5.8367,5.8375,5.8319,5.8428,5.845,5.8571,5.8635,5.8523,5.8532,5.889,5.8897,5.8903,5.8964,0,0,0,0,0,0,5.7933,5.797,5.8024,5.8106,5.8141,5.8324,5.8262,5.8271,5.8325,5.832,5.8399,5.8408,5.8427,5.8557,5.8581,5.8646,5.8539,5.8884,5.8893,5.8901,5.8957,5.8972,5.8985,0,0,0,0,0,5.7922,5.8033,5.8027,5.8057,5.8212,5.8328,5.8347,5.8369,5.833,5.8384,5.8422,5.8406,5.8624,5.8569,5.8596,5.8666,5.888,5.8891,5.89,5.895,5.8969,5.8985,0,0,0,0,0,0,5.7953,5.8044,5.8039,5.818,5.8247,5.8324,5.8393,5.8388,5.8464,5.8456,5.8477,5.8495,5.8618,5.8653,5.8591,5.8802,5.8746,5.8762,5.8775,5.8794,5.8808,5.8797,5.8547,0,0,0,0,0,5.7977,5.8067,5.814,5.8257,5.8292,5.8337,5.8388,5.84,5.8468,5.8495,5.8542,5.8606,5.8689,5.8743,5.8822,5.8961,5.8978,5.9022,5.9036,5.9047,5.9061,5.9137,5.9158,5.8937,5.8937,5.8937,0,0,5.8026,5.8087,5.8142,5.8266,5.8319,5.8409,5.8361,5.8457,5.8524,5.8508,5.8628,5.8664,5.8736,5.8868,5.8927,5.8901,5.9125,5.906,5.9068,5.9076,5.915,5.917,5.9189,5.8944,5.8942,5.8941,0,0,5.8163,5.8218,5.8324,5.8378,5.846,5.849,5.8515,5.8594,5.8619,5.8739,5.873,5.8807,5.8949,5.9002,5.9047,5.9204,5.9192,5.9228,5.9303,5.9377,5.9395,5.941,5.9467,5.9488,5.9241,5.9242,5.9242,0,5.8213,5.8353,5.8377,5.8477,5.8531,5.8524,5.863,5.868,5.8782,5.8818,5.8788,5.8968,5.9015,5.9159,5.9198,5.9234,5.9262,5.9221,5.9391,5.9407,5.9422,5.9476,5.9497,5.9246,5.9245,5.9245,5.9244,0,5.841,5.8507,5.8581,5.8685,5.8747,5.8849,5.8886,5.8945,5.895,5.8982,5.9104,5.9162,5.9254,5.9288,5.9292,5.9433,5.9414,5.9387,5.9331,5.9447,5.9498,5.9519,5.9252,5.925,5.9249,5.9248,0,0,5.8572,5.869,5.8717,5.8765,5.8855,5.8928,5.9028,5.9121,5.9172,5.9242,5.9325,5.9446,5.9423,5.9474,5.9484,5.9549,5.9671,5.9515,5.9516,5.9543,5.983,5.9851,5.9875,5.9663,5.9667,5.967,5.9824,0,5.8719,5.8902,5.8927,5.9087,5.9176,5.9171,5.9257,5.932,5.9352,5.9429,5.9462,5.9549,5.9511,5.9542,5.9606,5.9643,5.9729,5.9632,5.974,5.9743,5.9724,5.9902,5.9924,6.0066,5.9844,5.9848,5.985,0,5.8915,5.8996,5.9167,5.9246,5.9284,5.9363,5.9451,5.9525,5.9595,5.9614,5.9672,5.9674,5.9775,5.9714,5.9852,5.9786,5.983,5.9855,5.9861,5.9873,5.9805,5.9919,6.0112,6.0134,5.9882,5.9879,5.9877,0,5.9019,5.9169,5.9291,5.9331,5.9426,5.9482,5.9523,5.959,5.9645,5.972,5.9755,5.9839,5.9886,5.9949,5.9973,5.9927,6.011,6.0051,6.0127,6.0127,6.0167,6.0165,6.0371,6.0193,6.0193,6.0193,6.0192,0,5.9181,5.9286,5.9339,5.9414,5.953,5.9556,5.9669,5.9707,5.9767,5.9847,5.9845,5.992,5.9946,6.0024,6.0042,6.0154,6.0174,6.0191,6.0195,6.0192,6.019,6.0223,6.0214,6.0198,6.0197,6.0196,6.0195,0,5.9317,5.9357,5.949,5.957,5.9592,5.9675,5.9741,5.9812,5.9843,5.9945,5.9969,6.0017,6.0109,6.0139,6.0248,6.026,6.0391,6.0385,6.0369,6.037,6.0445,6.0438,6.0682,6.0715,6.0513,6.0515,6.0517,0,5.9419,5.9501,5.9591,5.9647,5.9692,5.978,5.9837,5.9864,5.9923,6.001,6.007,6.0162,6.0237,6.0383,6.0425,6.0508,6.0506,6.0585,6.0518,6.0513,6.0509,6.0504,6.0513,6.0598,6.06,6.0602,6.0603,0,5.9597,5.9613,5.9698,5.979,5.986,5.9932,6.0001,6.0046,6.0082,6.0148,6.0244,6.0303,6.0417,6.0507,6.0593,6.0631,6.0623,6.0624,6.0646,6.0645,6.0633,6.0642,6.0406,6.0618,6.0617,6.0616,6.0615,6.0614,5.9721,5.9793,5.9869,5.9963,6.0019,6.0085,6.0156,6.0198,6.028,6.0378,6.0386,6.049,6.0557,6.0671,6.0714,6.0793,6.077,6.0802,6.081,6.0818,6.0825,6.062,6.0808,6.0808,6.0807,6.0807,6.0807,0,5.99,5.9949,6.0036,6.0136,6.0209,6.0199,6.0275,6.0336,6.0429,6.0494,6.0569,6.0679,6.0767,6.0816,6.0903,6.0957,6.0956,6.0979,6.0976,6.0985,6.084,6.0813,6.0979,6.0979,6.0979,6.0979,6.0979,6.0979,6.0002,6.0125,6.015,6.03,6.0346,6.0452,6.0496,6.0556,6.0608,6.0732,6.0807,6.084,6.0898,6.099,6.1069,6.1081,6.1113,6.114,6.1149,6.1013,6.0995,6.0979,6.0953,6.1146,6.1147,6.1289,6.129,6.1291]}]]